AQI (31)

Current Conditions for Foresthill, CA. Overcast, Rain   
Visibility: 1/4 mile
Cloud ht: 1682 ft
Space WX Alerts: ALERT:  Geomagnetic K-index of 4 ( Latest Alert ) - Issue Time: 2020 Jan 09 0904 UTC

  Summary / Temperature 

Current Temperature
46.1°F
7.8°C
(24/hr Ago)
47.3°F
(Apparent temp)
42.7°F
Cool
Wind Chill Graphs
46.1°F 

46.3°F/ 7.9°C
 --- Virtual Temp: 48.0°F ---

 Temp Rate:

 24/hr Difference:

 Avg Running Temp:

 Todays High:

 Todays Low:

 Y-days High:

 Y-days Low:

 Todays WChill:

 Y-days WChill:

 Evapotranspiration:

-0.3°F/hr 

-1.2°F

46.1°F

48.8°F 12:00am

45.9°F 7:58am

59.1°F 12:54pm

45.4°F 6:35am

40.0°F 8:27am

40.3°F 3:45am

-0.003 in

115' Above Ground

 Temperature:

 6'AGL VRS 115'AGL:

 Avg Running Temp:

 Humidity:

 Todays High:

 Todays Low:

 Y-days High:

 Y-days Low:

54.0°F 

+7.9°F

54.0°F

0% 

54.0°F 12:00am

54.0°F 12:00am

59.0°F 11:20am

52.0°F 12:00am

Temp & Humidity Graphs

  Wind 

Wind Speed

 Calm

Gusting to

 12.0 mph

Wind from SSE

157°  SSE

Calm

 Avg speed:

 Wind Run:

 Peak Gust:

  4.0 mph 

21.0 miles

  15.0 mph 3:56am

  Almanac  

Moon age: 1 days,16 hours,17 minutes,3%

Waxing Crescent
3%
Illuminated
1 day in cycle

 Moonrise:

 Moonset:

 Sunrise:

 Sunset:

 Solar Noon:

8:36am

7:10pm

7:12am

5:14pm

12:16pm

1min 50s more daylight tomorrow 

  Solar Radiation 

(Current Solar)
  35 W/m2 (13%)
(Todays High)
 51 W/m2@8:45am
Feels like: 48.7°F in the sun

Rain

 Rain Today:

 Rain Rate (/hr):

 Rain last hour:

 Rain Yesterday:

 This Month:

 Season Total:

5 Days Since Last Dry Day

1.38 in

0.071 in

0.08 in

0.19 in

5.11 in

20.22 in

Updated Time

Updated: 1/26/20  9:09am

(Updated  sec ago)

Humidity & Barometer

 Humidity:

 Wetbulb:

 Dew Point:

 Barometer:

96% 

45.5°F 

45.0°F 

30.193 inHg 

 Baro Trend:  Rising Slowly 
Northern Calif
Preparedness
Fire 
Level 

    UV Index  

(Current UV)
0.0  None
(Todays High) @ 12:00am
0.0   None

National Weather Service Forecast

Today

Today: Rain Showers
Rain Showers
Tonight

Tonight: Partly Cloudy
Partly Cloudy
Monday

Monday: Sunny
Sunny
Monday
Night
Monday Night: Mostly Cloudy then Slight Chance Rain Showers
Mostly Cloudy
Tuesday

Tuesday: Slight Chance Rain Showers
Slight Chance Rain Showers
Tuesday
Night
Tuesday Night: Partly Cloudy
Partly Cloudy
Hi 49 °F ↓ Lo 37 °F Hi 53 °F ↓ Lo 40 °F Hi 52 °F Lo 38 °F

Foresthill Probe 2 Stats  
Foresthill Probe 2: is located on Thomas Street
at 3000 feet. The main Foresthill Weather site
is located on Melody ln at the 2860 foot elevation

Calm
45.3°F
7.4°C
Temp Rate:
-0.4°F
Calm
Gusting to
5.0 mph
(Humidity)
98%
Wind from ESE
120°  ESE
Updated: 26/01/20 - 09:10:24
 Todays High: 48.3°F 00:00
 Todays Low: 45.1°F 08:00
 Rain Today: 1.32 in
 Season Total: 19.49 in

Foresthill Wx: Monthly,Yearly, Highs and Lows 

Foresthill  
This Weather Data is coming from the main Foresthill
Weather site located on Melody ln at the 2860 foot
elevation
Not Foresthill Probe 2
Weather Data
Month
  High
Month
  Low
Year
High
Year
Low
Temp 60.6°F
1/19/20
30.5°F
1/15/20
60.6°F
1/19/20
30.5°F
1/15/20
Humidity 100%
1/8/20
30%
1/7/20
100%
1/8/20
30%
1/7/20
Heat Index 62.1°F
1/19/20
35.0°F
1/15/20
62.1°F
1/19/20
35.0°F
1/15/20
Wind Chill 60.6°F
1/19/20
17.7°F
1/15/20
60.6°F
1/19/20
17.7°F
1/15/20
Wind Gust 40 mph
1/16/20
0 mph
1/1/20
40 mph
1/16/20
0 mph
1/1/20
Barometer 30.59 in
1/5/20
29.73 in
1/16/20
30.59 in
1/5/20
29.73 in
1/16/20
ET 0.07 in
1/7/20
0.00 in
1/1/20
0.07 in
1/7/20
0.00 in
1/1/20
Dew Point 49.2°F
1/25/20
24.2°F
1/7/20
49.2°F
1/25/20
24.2°F
1/7/20
Visible Satellite Pacific Satellite US Radar Satellite Imagery Sacramento,CA.  (click to enlarge)
NWS Weather Forecast - Summary
Updated: Sunday, January 26, 2020 - 2:45am PST
NWS Weather Forecast: Today and Tonight (Updated: Sun, 26-Jan-2020 8:11am PST)
Today

Today: Rain Showers
Rain Showers

Hi 49 °F ↓
NWS forecast: Rain showers before 4pm. Mostly cloudy. High near 49, with temperatures falling to around 47 in the afternoon. South southwest wind around 6 mph. Chance of precipitation is 80%. New rainfall amounts between a quarter and half of an inch possible.
Tonight

Tonight: Partly Cloudy
Partly Cloudy

Lo 37 °F
NWS forecast: Partly cloudy, with a low around 37. East wind around 5 mph.
YR.NO 10 Day Weather forecast
Last update: 01/26/2020 @ 05:21
Next update: 01/26/2020 @ 11:30
Provided by: 22
      Temperature Precipitation Pressure Wind  
Today
01/26/2020
07:00 12:00 45°F 0.10 in 30.14 inHg Light breeze from south 6 mph
  12:00 18:00 46°F 0.12 in 30.20 inHg Light breeze from south 6 mph
  18:00 00:00 41°F   30.25 inHg Light air from east 2 mph
    (Click to enlarge)
meteogram

    Forecast for next 9 days

      Temperature Precip Pressure Wind  
Monday
01/27/2020
00:00 06:00 34°F   30.33 inHg Light breeze from east-northeast 4 mph
  06:00 12:00 30°F   30.33 inHg Light breeze from east 4 mph
  12:00 18:00 50°F   30.35 inHg Light air from southwest 3 mph
  18:00 00:00 43°F   30.36 inHg Light air from south 2 mph
      Temperature Precip Pressure Wind  
Tuesday
01/28/2020
00:00 06:00 41°F   30.38 inHg Light air from east-southeast 2 mph
  06:00 12:00 34°F 0.10 in 30.32 inHg Light breeze from east 4 mph
  12:00 18:00 43°F   30.34 inHg Light air from east-southeast 3 mph
  16:00 22:00 46°F   30.27 inHg Light air from west-northwest 2 mph
  22:00 04:00 28°F   30.27 inHg Light breeze from east-northeast 6 mph
      Temperature Precip Pressure Wind  
Wednesday
01/29/2020
04:00 10:00 30°F   30.26 inHg Light breeze from east-northeast 7 mph
  10:00 16:00 52°F   30.22 inHg Light breeze from northeast 5 mph
  16:00 22:00 55°F   30.14 inHg Light air from north-northwest 2 mph
  22:00 04:00 41°F   30.16 inHg Gentle breeze from east-northeast 8 mph
      Temperature Precip Pressure Wind  
Thursday
01/30/2020
04:00 10:00 36°F   30.17 inHg Light breeze from east-northeast 6 mph
  10:00 16:00 54°F   30.23 inHg Light air from north-northeast 1 mph
  16:00 22:00 59°F   30.19 inHg Light air from west-northwest 2 mph
  22:00 04:00 41°F   30.26 inHg Gentle breeze from east-northeast 8 mph
      Temperature Precip Pressure Wind  
Friday
01/31/2020
04:00 10:00 37°F   30.25 inHg Light breeze from east-northeast 5 mph
  10:00 16:00 57°F   30.32 inHg Light air from west-southwest 1 mph
  16:00 22:00 59°F   30.29 inHg Light air from west 3 mph
  22:00 04:00 39°F   30.31 inHg Light breeze from east-northeast 5 mph
      Temperature Precip Pressure Wind  
Saturday
02/01/2020
04:00 10:00 36°F   30.26 inHg Light breeze from east-northeast 4 mph
  10:00 16:00 61°F   30.28 inHg Light air from east-northeast 3 mph
  16:00 22:00 64°F   30.22 inHg Light air from west 2 mph
  22:00 04:00 41°F   30.21 inHg Light breeze from east 4 mph
      Temperature Precip Pressure Wind  
Sunday
02/02/2020
04:00 10:00 34°F   30.13 inHg Light breeze from east 4 mph
  10:00 16:00 61°F   30.11 inHg Light air from south-southwest 3 mph
  16:00 22:00 55°F 0.11 in 29.98 inHg Light breeze from south-southwest 6 mph
  22:00 04:00 37°F < 0.01 in 30.01 inHg Light breeze from west-northwest 7 mph
      Temperature Precip Pressure Wind  
Monday
02/03/2020
04:00 10:00 28°F   30.05 inHg Light breeze from north-northeast 6 mph
  10:00 16:00 37°F   30.09 inHg Gentle breeze from north 9 mph
  16:00 22:00 37°F   29.98 inHg Gentle breeze from north-northeast 9 mph
  22:00 04:00 25°F   30.01 inHg Light breeze from northeast 6 mph
      Temperature Precip Pressure Wind  
Tuesday
02/04/2020
04:00 10:00 23°F   29.98 inHg Light breeze from northeast 7 mph

NOAA Local Storm Report
GILE   ( More )
DATE
01/25/2020
TIME
6:20 PM
COUNTY
IRON
STATE
WI
GEOGRAPHIC
46.43N 90.23W
SOURCE
TRAINED SPOTTER
SNOW MEASURED AT 2.8 INCH
corrects previous snow report from gile. Still snowing at time of observation.
How Close Are We To this Month's Temperature Record ?
Updated Sunday, Jan 26, 2020- 9:10:01 AM

Current Temperature: 46.1°F

January's High: Temperature Record 71.3°F - Set on Sat, Jan 24, 2015 - 3:19:00 PM
We are currently 25.2°F Less than this Month's record High

January's Low: Temperature Record 24.7°F - Set on Sun, Jan 13, 2013 - 7:29:00 AM
We are currently 21.4°F More than this Month's record Low

Weather History For Sunday, January 26, 2020


On this Day - In Weather History ...
Data courtesy of weatherforyou.com
powered by Cumulus v1.9.3 (1059)
Ambient Weather VWS v14.00
Top Website Map Copyright © 2007 - 2020 Foresthillweather.com Never base important decisions on this or any weather information obtained from the Internet